Dewpoint
76 76 76 76 76 75 71 67 55 59 57 54 56 57 55 61 62 61 61 63 61 65 67 68 69 68 66 63 64 63 64 63 62 54 53 66 71 72 72 73 74 75 75 75 76 76 76 77 77 77 76 75 75 75 75 75 75 75 75 75 75 75 75 75 75 75 75 75 75 75 75 75 75 75 75 75 75 75 75 75 75 75 74 75 75 75 74 75 75 75 75 75 75 75 75 74 74
76 76 76 76 74 71 65 67 57 55 55 54 55 58 58 61 62 60 61 61 64 64 68 69 70 67 66 65 64 64 63 65 66 66 68 70 71 71 73 74 74 74 75 75 76 76 76 77 77 77 76 75 75 75 75 75 75 75 75 75 75 75 75 75 75 75 75 75 75 75 75 75 75 75 75 75 75 75 75 75 75 75 74 74 75 75 75 75 75 75 75 75 75 74 75 74 74
75 75 75 75 73 70 67 64 53 52 52 51 55 57 61 59 59 61 62 63 65 67 68 68 67 67 65 66 61 62 61 66 67 68 69 70 69 72 73 74 74 74 75 75 75 75 76 76 77 77 76 75 75 75 75 75 75 75 75 75 75 75 75 75 75 75 75 75 75 75 75 75 75 75 75 75 75 75 75 75 75 75 75 74 74 74 74 74 74 75 75 75 74 74 74 74 74
75 75 73 72 67 69 61 59 56 53 50 53 54 58 58 59 59 62 64 65 66 66 67 66 65 67 66 62 62 64 64 64 68 68 68 69 70 72 73 73 75 74 75 75 75 75 75 77 77 77 76 75 75 75 74 74 75 76 75 75 75 75 75 75 75 75 75 75 75 75 75 75 75 75 75 75 75 75 75 75 75 75 75 75 74 74 74 74 74 74 74 74 74 74 74 74 74
75 75 73 71 65 61 60 56 56 57 52 53 53 59 59 60 60 61 64 66 66 66 67 67 64 68 69 67 69 62 63 68 68 72 67 69 72 72 73 73 74 74 74 74 74 75 75 77 77 76 76 75 75 75 75 74 75 75 76 75 75 75 75 75 75 75 75 75 75 75 75 75 75 75 75 75 75 75 75 75 75 74 74 75 74 75 75 74 74 75 75 74 74 74 74 74 74
74 73 74 71 65 66 60 56 56 55 57 59 56 57 60 60 60 61 63 67 67 67 67 65 64 64 65 67 69 65 69 64 68 71 68 70 72 72 72 73 73 73 73 73 74 75 75 77 76 76 76 75 75 75 75 75 75 75 75 76 75 75 75 75 75 75 75 75 75 75 75 74 75 75 75 75 75 75 75 75 75 75 75 75 74 74 75 75 75 75 74 75 75 74 74 74 74
72 72 71 69 66 64 56 55 55 56 58 61 59 60 61 61 62 63 63 65 67 66 67 65 67 66 63 66 69 70 73 72 71 70 72 71 71 72 72 72 72 71 72 73 74 74 75 76 76 76 76 75 75 75 75 75 74 75 75 75 75 75 76 75 75 75 75 75 75 75 75 74 74 74 74 74 74 75 74 74 74 74 75 74 75 75 75 74 74 75 75 75 74 74 74 74 74
73 69 68 61 58 58 55 55 55 57 57 62 63 62 63 64 64 63 62 63 63 63 66 67 66 64 65 69 63 68 73 72 72 72 73 71 71 72 72 71 71 70 72 73 74 74 76 76 76 76 76 76 76 75 76 75 75 75 75 75 75 75 75 75 75 75 75 75 75 74 75 74 74 75 74 74 74 74 75 74 74 75 75 75 75 75 75 74 74 74 74 74 75 75 75 74 74
73 71 70 61 56 57 55 55 55 60 60 61 62 65 64 64 64 63 62 63 64 66 65 66 65 61 63 65 65 68 71 71 72 76 72 69 71 71 71 70 70 70 71 73 73 74 75 76 76 76 76 76 76 75 76 76 76 75 75 75 75 75 75 74 74 74 75 75 75 74 75 75 74 74 75 75 75 74 75 74 74 74 74 75 74 75 75 74 74 74 74 74 73 75 75 74 74
71 69 63 58 58 54 54 54 54 57 59 61 62 64 64 64 63 64 63 63 63 64 65 66 66 63 65 63 65 67 67 71 73 71 71 71 71 70 70 69 70 71 72 73 73 74 75 76 76 76 76 76 76 76 76 75 76 75 75 75 75 75 75 75 75 74 74 75 75 74 75 75 74 74 74 74 75 74 75 74 75 75 75 74 74 74 74 75 74 74 74 74 74 74 74 74 75
66 68 67 58 54 53 53 54 56 59 60 62 63 65 65 66 64 64 64 64 66 65 67 67 62 64 65 64 65 70 71 73 71 71 73 70 71 70 70 70 71 71 72 73 74 75 75 74 76 76 76 76 76 76 76 76 75 76 76 76 75 75 75 75 75 75 75 75 74 74 75 75 75 74 74 74 74 74 74 74 74 75 75 75 75 75 75 75 75 75 75 75 75 75 75 75 74
63 64 62 53 51 53 54 55 56 57 60 61 60 64 65 65 65 63 63 62 63 63 63 67 62 66 63 65 64 68 70 70 70 73 70 69 70 71 71 71 71 72 73 74 75 75 75 75 75 76 76 76 76 76 76 76 75 75 75 75 75 75 75 75 75 75 75 75 74 75 74 75 75 75 75 74 75 74 75 75 74 74 75 75 75 75 75 75 75 75 75 75 75 75 75 75 75
65 61 58 48 53 55 56 55 55 58 58 59 60 64 67 64 64 64 64 64 64 63 63 66 66 67 62 64 67 70 67 69 72 70 68 68 69 69 70 71 72 73 74 75 74 74 74 74 75 76 76 76 76 76 76 76 76 76 76 75 75 75 75 76 75 75 75 75 75 75 75 75 75 75 75 75 75 75 75 75 74 75 74 74 74 74 75 74 73 73 73 74 75 75 75 75 75
64 62 54 47 51 54 54 55 56 55 55 58 63 64 65 65 65 65 64 63 64 63 67 68 67 66 64 66 65 67 68 70 71 69 67 67 67 68 70 71 73 75 75 74 74 74 74 75 75 75 75 75 75 76 76 76 76 76 76 76 76 76 76 76 76 76 75 75 75 75 75 75 75 75 75 74 74 74 74 75 75 75 75 75 75 75 74 73 73 73 73 74 74 74 74 75 75
64 64 51 50 48 50 51 53 55 55 55 61 62 64 65 64 64 64 63 62 63 67 69 71 67 65 60 63 62 67 68 70 71 70 68 68 68 68 69 69 70 72 73 74 74 74 74 75 75 75 76 75 76 75 75 76 76 76 76 76 76 76 77 77 76 76 76 76 75 74 74 74 74 74 74 74 75 74 74 74 75 75 75 75 74 74 74 74 74 73 73 73 74 74 74 73 74
65 55 52 49 47 48 51 55 57 56 57 61 63 65 63 64 66 65 66 66 66 70 70 66 70 64 65 65 66 69 69 70 72 71 69 69 69 69 69 69 69 68 69 71 73 75 75 75 75 75 76 76 76 76 76 75 76 77 77 77 76 76 76 75 75 75 75 75 75 75 75 75 75 74 74 74 75 75 74 74 73 74 75 75 74 74 74 74 74 74 74 74 74 74 74 73 73
64 53 48 49 46 49 49 52 55 54 59 61 64 64 62 63 65 67 69 68 66 67 67 69 68 70 68 68 71 72 71 72 73 69 67 68 67 68 68 69 69 68 69 70 72 74 74 75 75 76 76 76 76 76 76 76 77 77 76 76 76 75 75 74 75 75 75 76 75 75 74 74 75 75 75 75 76 75 75 75 75 74 74 74 74 74 74 74 74 74 74 75 75 74 74 74 74
55 50 47 47 48 47 50 50 52 59 59 61 62 63 62 61 64 65 66 66 66 66 65 67 68 69 70 70 72 72 72 71 68 68 67 67 67 67 68 69 69 68 69 70 71 71 72 73 75 75 76 76 76 76 76 76 77 77 76 76 76 76 75 75 75 75 76 75 76 75 73 74 75 74 75 76 75 76 74 74 74 75 74 75 74 74 74 74 74 73 74 74 74 74 74 73 73
44 48 47 44 47 48 52 54 58 60 59 61 61 62 62 61 63 64 63 63 63 63 65 65 66 67 68 70 72 71 71 71 70 69 69 68 68 68 69 70 71 72 72 73 73 72 73 74 76 76 77 76 75 75 76 76 76 76 75 73 74 75 76 76 74 75 75 74 74 73 75 74 74 75 74 75 75 75 75 75 74 75 74 74 74 74 73 74 74 74 74 74 74 74 74 73 72
46 43 43 44 47 48 53 57 58 60 60 60 61 61 62 62 63 62 62 63 63 62 63 64 64 65 68 70 70 70 70 70 70 70 69 69 69 70 70 70 71 72 72 73 73 75 75 75 76 76 75 75 75 76 75 75 75 74 74 75 75 74 74 74 74 75 75 74 74 74 74 74 74 74 76 75 75 75 74 75 74 74 74 75 74 74 74 74 73 73 73 73 73 74 73 72 72
40 42 44 46 45 47 52 56 58 60 60 60 60 60 60 61 62 62 63 62 62 63 64 63 64 66 68 69 69 69 68 68 69 70 71 71 71 72 72 71 71 71 72 74 74 75 76 76 76 75 76 76 77 76 74 74 74 74 74 74 74 74 74 74 75 75 75 74 74 74 74 74 75 74 73 73 73 73 73 72 73 72 72 72 73 73 73 72 72 72 72 72 71 72 73 73 73
40 41 43 44 47 48 53 56 58 59 60 59 59 59 60 62 62 62 61 58 60 63 66 67 68 68 68 68 68 68 67 68 68 68 69 69 71 71 71 72 72 71 73 72 73 74 75 76 76 75 75 75 74 75 74 76 74 74 74 74 75 74 74 75 74 73 74 74 73 74 74 73 73 72 72 72 73 72 72 71 71 72 72 72 73 72 72 72 71 71 71 71 71 72 72 72 72
41 44 46 48 47 48 54 56 57 59 58 58 57 59 59 58 59 60 61 61 64 68 68 69 69 68 68 69 67 67 67 67 67 68 69 69 70 71 71 71 71 71 72 72 73 74 76 76 75 75 75 75 75 74 75 74 74 74 74 74 74 73 74 73 73 74 74 73 73 73 72 72 72 72 72 72 72 71 71 71 71 72 71 71 72 72 72 72 71 71 71 71 72 72 72 72 72
42 42 47 48 47 46 51 55 58 58 57 56 58 58 57 58 57 61 62 65 67 68 69 69 69 69 69 68 67 67 67 67 68 69 70 70 70 71 72 71 72 72 72 73 73 74 75 75 75 75 75 75 74 75 75 74 74 74 74 75 74 76 75 74 73 73 72 73 73 73 73 72 72 71 71 72 72 72 72 71 72 72 72 72 72 72 72 72 71 71 71 71 71 71 71 71 72
39 40 46 47 46 47 49 51 53 56 57 58 59 57 58 57 59 61 62 65 67 68 69 68 68 68 69 67 66 66 67 68 68 69 70 72 72 72 72 72 72 72 70 71 72 73 74 75 75 75 75 74 74 74 74 74 74 74 74 73 73 75 74 74 73 73 72 73 73 73 72 72 71 71 71 71 71 71 71 72 72 72 72 71 72 72 72 71 71 71 71 71 71 71 71 71 71
40 41 46 47 47 48 50 50 52 54 57 60 59 59 60 60 61 61 63 65 67 67 68 67 67 67 68 69 68 67 67 67 68 68 70 71 70 70 72 71 72 71 70 72 72 73 74 74 74 74 74 73 74 74 74 73 73 74 74 74 74 74 74 74 74 73 73 72 72 73 73 71 71 71 70 70 70 70 70 71 72 72 72 72 72 71 71 71 71 71 71 72 72 71 71 71 72
42 45 47 47 47 47 47 48 50 52 56 59 58 59 59 60 60 58 63 65 66 66 66 66 66 66 67 68 68 68 68 68 68 69 69 69 69 70 71 72 71 72 73 72 73 73 75 74 73 73 73 75 74 75 74 74 74 74 75 74 74 74 73 74 74 73 72 72 72 73 73 72 72 71 70 71 71 71 71 72 72 71 71 71 72 72 72 72 70 70 70 71 71 71 71 71 71
43 47 48 47 48 47 48 49 50 54 57 58 58 59 60 60 55 58 63 65 65 65 65 65 65 66 66 66 66 67 67 68 68 68 67 67 67 69 70 71 71 72 72 72 73 73 74 73 73 73 73 74 75 74 75 74 74 74 75 74 73 74 75 73 74 73 75 73 73 73 73 73 73 72 71 71 71 71 71 72 72 71 71 71 72 72 71 71 71 71 72 71 70 70 70 70 70
44 47 46 47 46 47 49 49 51 56 54 57 57 55 54 55 55 59 63 64 64 64 65 65 65 65 66 66 65 65 65 65 67 67 68 68 69 70 70 72 71 71 72 73 73 73 73 73 74 74 74 74 74 74 75 74 73 74 73 74 74 75 74 74 73 73 73 73 74 74 74 74 74 73 72 72 73 71 71 72 72 72 72 72 72 72 72 71 72 72 72 72 71 70 70 70 70
43 44 46 44 46 47 47 50 56 52 53 55 54 45 47 51 56 61 63 64 64 63 64 64 64 65 64 65 64 65 65 66 66 67 68 69 70 71 70 72 73 72 72 73 73 73 73 74 74 75 75 74 75 75 75 74 75 75 75 75 76 75 74 74 75 74 74 74 75 74 73 74 74 72 72 71 71 71 72 72 72 72 72 72 72 73 72 72 72 72 71 71 72 72 71 70 71
40 44 43 43 43 45 48 51 55 49 53 52 51 45 47 52 55 61 63 63 62 61 62 62 63 64 64 64 65 65 65 66 67 68 69 70 71 71 71 72 72 72 72 72 72 73 74 73 74 73 74 74 74 73 74 74 74 74 74 74 75 75 74 74 74 74 73 73 74 73 74 74 75 74 73 72 72 71 71 70 71 72 72 72 72 72 72 72 72 72 72 71 71 71 70 71 71
43 38 39 47 40 45 49 53 52 49 53 53 48 47 47 49 54 61 62 62 59 58 59 60 62 63 63 64 65 65 65 67 68 69 70 70 71 71 71 71 72 72 72 72 72 73 74 74 75 73 74 73 72 73 73 73 74 74 74 75 73 74 74 73 73 73 73 74 75 74 73 74 73 73 73 73 71 72 71 70 70 72 72 72 72 71 72 72 72 71 71 71 70 70 70 70 71
43 37 39 42 43 45 50 51 52 51 51 54 49 47 51 49 54 59 60 59 59 58 59 59 60 61 62 64 64 64 65 66 68 69 70 71 71 71 71 71 71 71 72 72 72 72 72 73 73 73 73 73 73 73 73 73 73 73 73 73 73 73 72 72 72 72 74 74 74 73 74 75 75 73 73 73 72 72 72 72 71 71 72 71 71 71 71 72 71 72 71 72 70 69 69 69 70
36 40 39 40 41 45 46 49 51 52 51 51 52 49 48 49 54 56 57 57 56 55 56 57 59 61 62 63 63 64 65 66 68 69 70 71 71 72 72 72 72 72 72 73 73 72 72 72 74 74 73 73 73 73 73 73 73 73 73 73 75 73 73 73 72 71 71 72 72 70 70 72 72 71 73 73 70 71 71 70 70 71 72 71 71 70 71 71 71 71 71 70 70 70 69 69 69
32 39 39 39 41 45 45 46 49 49 51 50 50 48 48 51 53 54 54 55 54 54 55 56 58 60 62 62 64 65 66 67 69 70 70 71 71 72 72 72 72 73 73 72 72 72 72 72 72 72 74 73 73 73 73 73 73 72 72 73 71 70 70 70 70 70 70 70 70 69 70 70 71 69 71 72 70 70 69 69 68 69 70 70 69 68 68 70 70 70 69 70 70 70 70 70 70
25 28 37 37 38 43 44 46 49 46 48 46 47 46 48 50 51 52 53 55 53 52 54 55 56 59 61 62 64 66 67 68 69 69 70 70 70 71 71 72 72 72 72 72 73 72 71 72 72 72 73 73 73 72 72 71 72 72 71 70 68 69 69 72 71 70 70 70 70 69 69 69 70 70 69 69 69 69 68 68 67 68 68 69 68 66 66 68 68 70 69 69 69 69 71 72 71
21 20 32 36 36 41 44 44 47 46 47 46 46 47 47 47 49 51 52 54 53 51 53 54 56 59 61 63 64 65 66 67 69 69 69 70 70 71 71 71 71 71 71 71 72 72 72 71 71 70 72 73 72 71 71 70 68 67 67 67 67 68 70 70 70 70 70 70 70 69 69 69 69 69 70 69 68 68 68 67 66 67 68 68 67 65 66 68 69 68 68 66 67 65 67 70 70
18 16 17 27 35 38 42 42 46 47 44 45 48 47 47 47 48 49 52 53 52 51 53 55 58 60 62 62 63 65 66 68 68 68 69 70 70 71 71 71 72 70 71 71 71 71 72 72 72 71 71 71 71 70 69 69 69 67 66 66 66 67 68 67 67 69 71 72 71 70 69 68 69 70 71 70 69 68 67 67 66 66 67 67 66 65 65 67 66 65 65 65 66 66 65 69 69
17 15 17 32 36 41 42 44 46 46 44 46 47 46 47 48 48 50 52 51 52 52 54 56 59 61 62 63 64 65 66 66 66 68 69 70 70 70 70 70 70 70 70 70 70 71 71 71 71 70 70 70 71 73 70 69 69 69 67 67 67 66 67 69 68 68 68 68 68 70 70 68 68 69 69 71 69 69 68 66 65 66 66 67 64 64 64 64 65 65 65 65 65 65 66 68 69
16 14 14 22 37 39 37 42 46 50 44 45 47 44 48 52 51 53 52 51 54 55 55 57 60 61 62 63 64 64 64 65 66 68 68 69 70 69 69 70 70 70 70 69 70 70 71 72 70 69 68 69 69 70 72 70 69 68 69 69 69 69 69 71 67 67 66 66 65 65 65 64 65 68 70 68 69 68 67 66 65 65 65 66 65 64 64 64 65 65 65 66 66 64 64 65 69
19 20 15 16 36 37 38 39 44 45 47 47 47 48 47 50 49 51 53 55 58 58 57 58 61 62 64 64 64 64 64 65 67 68 68 69 69 70 70 70 69 68 69 69 70 70 70 68 68 68 68 68 68 71 69 69 67 66 66 66 66 66 65 65 63 63 64 67 65 64 63 64 64 65 68 65 67 65 66 65 65 65 65 65 65 64 64 64 65 65 65 65 65 64 64 65 66
17 17 15 15 26 33 37 39 40 40 42 45 43 41 43 49 49 49 51 53 54 56 55 57 61 62 63 63 64 65 65 65 68 68 68 69 69 69 69 69 68 68 68 69 70 70 68 68 68 68 68 68 68 68 68 67 67 66 65 64 64 64 63 64 63 63 62 63 64 64 63 63 64 64 65 65 65 66 65 65 65 65 65 66 66 64 64 64 65 65 66 65 65 66 65 64 64
19 18 20 19 19 29 34 36 37 38 39 43 43 39 39 49 48 50 51 51 53 56 55 58 61 62 63 63 64 64 64 65 67 68 69 69 68 67 67 67 67 67 68 69 69 68 68 68 69 68 68 68 68 68 68 68 66 66 66 65 65 64 63 63 64 64 64 63 63 63 63 63 63 63 63 63 65 66 65 65 65 65 65 66 66 64 64 64 65 65 67 65 65 66 66 64 64
18 21 20 18 17 18 23 33 33 37 40 45 41 46 45 44 47 51 51 51 54 56 56 58 61 62 63 63 63 63 64 65 66 66 68 68 67 67 66 68 68 68 68 68 67 68 68 68 68 68 68 69 68 67 67 68 65 65 64 63 65 63 64 63 63 64 64 66 62 63 64 63 62 63 62 63 64 65 65 64 64 64 65 65 66 63 63 63 64 65 66 66 65 65 65 65 64
18 21 22 21 21 21 20 21 23 22 36 39 40 46 39 43 49 52 51 51 54 55 56 58 61 62 62 62 62 63 63 64 65 65 67 68 67 68 68 68 69 68 67 67 68 68 68 68 68 68 67 67 66 66 65 65 67 64 64 63 62 63 65 64 63 63 63 64 61 62 63 62 61 62 62 62 64 65 66 64 64 64 64 65 66 63 62 63 63 64 63 64 65 63 64 65 64
21 25 24 20 20 21 24 21 29 34 25 33 36 39 35 41 49 51 51 50 52 55 56 59 62 62 63 62 62 62 63 64 64 66 67 67 67 68 68 68 68 66 67 69 68 68 68 68 68 66 66 65 65 65 64 64 64 64 63 63 63 62 63 62 61 61 61 61 60 61 62 61 61 61 62 62 63 64 64 64 63 63 62 64 65 63 61 61 63 63 62 63 64 62 62 63 64
23 19 18 18 21 25 36 40 34 32 28 33 32 35 37 36 45 50 49 50 51 55 57 60 63 63 62 62 62 62 63 63 65 66 67 67 68 68 68 68 66 67 67 67 67 67 67 67 67 66 66 65 65 64 64 64 64 63 62 62 62 62 62 61 60 60 61 59 59 59 60 61 61 61 62 62 62 63 64 64 62 61 62 63 62 61 60 61 62 62 61 62 61 61 61 62 62
19 18 18 17 19 32 34 38 39 26 27 37 39 34 35 30 37 46 51 52 52 55 56 61 63 62 62 62 62 62 63 64 65 66 66 66 66 67 67 66 66 66 66 66 67 67 67 67 65 65 65 65 65 64 64 64 63 62 61 61 62 61 62 60 58 59 61 58 58 58 60 61 61 61 61 61 61 63 63 61 62 61 61 60 59 59 58 60 62 61 61 61 59 60 60 62 61
19 19 22 19 25 24 19 31 20 24 23 30 35 37 35 38 40 42 48 50 53 56 58 61 63 62 62 62 62 63 64 65 65 65 66 66 65 66 65 65 65 65 66 66 66 66 66 65 64 64 65 65 65 64 63 63 62 61 60 60 61 61 59 59 58 57 60 59 58 59 60 60 61 61 61 61 61 62 61 59 59 58 58 59 60 59 57 58 60 59 60 60 58 58 59 59 60
19 22 24 18 19 19 17 25 29 29 26 33 30 40 38 41 44 57 59 60 52 56 59 63 62 62 62 63 63 63 64 65 65 66 65 65 65 65 65 65 65 65 65 66 67 66 65 64 63 63 64 64 65 64 63 62 61 60 60 60 60 60 59 59 58 58 58 60 59 59 60 60 60 60 60 60 61 62 60 59 58 57 57 57 58 58 57 57 58 58 58 60 57 57 58 58 58
18 19 18 21 22 19 19 23 15 18 21 26 44 37 39 41 43 60 61 61 61 61 62 63 63 63 63 63 63 64 64 65 65 65 65 65 65 65 65 65 65 65 65 66 66 66 65 64 64 63 63 63 63 63 61 61 60 59 59 60 60 61 59 58 58 60 59 59 59 60 61 61 60 60 60 58 59 60 58 58 57 56 55 55 56 55 55 55 56 56 57 58 57 57 56 58 57
18 17 17 16 15 27 14 24 22 20 20 35 45 39 44 50 58 61 61 61 62 62 62 63 62 63 63 63 63 63 64 64 65 65 65 65 65 65 65 65 65 65 65 66 66 66 65 64 64 63 63 64 64 63 61 61 60 59 59 58 59 61 61 58 58 59 60 60 59 60 60 61 61 60 59 57 57 58 56 56 55 54 53 53 53 54 54 54 55 55 55 55 55 57 56 55 57
20 19 16 16 17 16 24 31 31 26 28 35 47 49 54 57 57 60 60 60 60 61 62 62 62 63 63 63 63 63 64 64 64 64 64 65 65 66 66 65 65 65 65 66 66 65 64 63 62 62 63 64 64 64 62 60 59 58 58 58 58 58 57 55 55 56 58 60 60 60 59 60 61 60 58 58 57 58 57 55 53 51 50 50 50 52 52 52 54 53 54 55 54 54 56 54 57
16 17 16 21 16 15 15 13 25 25 16 28 45 47 49 47 47 58 59 59 59 60 60 61 62 62 62 63 63 63 63 63 64 65 65 65 66 66 65 65 65 66 66 66 65 65 65 64 62 63 64 63 63 63 62 61 59 58 57 57 57 57 56 56 56 56 58 58 58 58 59 59 59 60 60 59 56 56 56 55 51 50 49 49 50 50 51 51 52 52 53 54 54 54 55 55 57
16 15 19 14 21 15 22 16 19 15 23 35 43 47 45 46 49 57 58 58 59 59 59 60 60 61 62 63 63 64 64 64 64 64 64 64 64 65 65 66 66 66 66 66 66 65 65 64 63 62 63 63 64 64 63 62 60 59 58 58 57 57 57 56 56 56 57 57 57 57 57 58 57 57 57 56 56 55 52 50 49 47 47 47 48 49 50 50 50 50 52 52 53 53 54 55 55
20 19 17 22 16 18 16 13 26 18 14 35 38 45 45 53 55 54 58 58 59 59 59 59 59 60 62 63 63 64 63 62 63 63 63 64 64 65 65 65 64 65 67 66 66 65 63 64 65 64 63 62 62 61 62 60 60 58 57 57 57 57 58 57 56 55 55 57 57 56 56 56 57 57 54 54 55 52 49 47 46 45 45 45 46 48 49 49 49 50 51 51 52 53 53 55 55
16 16 15 16 22 19 12 20 18 18 23 27 37 39 44 52 57 55 59 59 59 59 59 60 60 61 62 63 63 63 62 62 63 63 63 64 64 65 65 65 65 67 67 66 66 64 64 65 62 60 60 61 59 57 57 57 57 56 57 56 56 56 55 56 55 55 54 55 57 58 56 56 55 55 54 54 53 50 47 46 45 46 44 45 46 47 48 49 50 50 51 52 52 53 53 55 57
16 16 15 14 13 15 14 14 18 11 19 34 42 41 47 56 60 57 60 60 60 60 60 60 61 61 62 63 63 62 62 62 63 63 63 63 64 64 64 65 66 66 65 65 67 67 67 65 63 60 62 59 58 57 56 56 57 56 56 56 55 55 55 55 55 55 55 55 55 55 56 54 52 52 53 52 50 48 47 45 44 43 43 44 46 47 48 49 50 50 51 52 53 54 53 55 56